Home   Weather   Clarksville   Past weeks

Flag for USA Past Weather in Clarksville, Tennessee, USA — Yesterday and Last 2 Weeks

Now
46 °F

Low clouds.


Feels Like: 45 °F
Forecast: 34 / 47 °F
Wind: 3 mph from Southwest

Location: Outlaw Field

Current Time: Dec 4, 2016 at 6:35:08 pm

Latest Report: Dec 4, 2016 at 5:52 pm


Visibility: 10 mi

Pressure: 29.98 "Hg

Humidity: 89%

Dew Point: 43 °F

Location of ClarksvilleLocation

Past Weather in Clarksville — Graph

°F

Clarksville Temperature Yesterday

Maximum temperature yesterday: 43 °F (at 1:52 pm)
Minimum temperature yesterday: 33 °F (at 5:52 am)
Average temperature yesterday: 40 °F

High & Low Weather Summary for the Past Weeks

 TemperatureHumidityPressure
High67 °F (Nov 29, 2:52 pm)97% (Nov 29, 6:52 am)30.46 "Hg (Nov 29, 6:52 am)
Low24 °F (Nov 21, 5:52 am)21% (Nov 22, 1:52 pm)29.33 "Hg (Nov 28, 4:52 pm)
Average45 °F67%30.12 "Hg
* Reported Nov 19 4:52 pm — Dec 4 4:52 pm, Clarksville, Weather by CustomWeather, © 2016

Note: Actual official high and low records may vary slightly from our data, if they occured in-between our weather recording intervals... More about our weather records

Advertising

Clarksville Weather History for the Previous 24 Hours

Scroll right to see more
 ConditionsComfort  
Time TempWeatherWind HumidityBarometerVisibility
4:52 pm
Sun, Dec 4
46 °FMostly cloudy.6 mph89%29.97 "Hg10 mi
3:52 pm47 °FFog.6 mph90%29.96 "Hg2 mi
2:52 pm47 °FFog.5 mph93%29.95 "Hg2 mi
1:52 pm46 °FFog.3 mph93%29.93 "Hg1 mi
1:00 pm46 °FLight rain. Fog.No wind89%29.94 "Hg2 mi
12:52 pm46 °FLight rain. Fog.3 mph89%29.95 "Hg2 mi
11:52 am45 °FFog.6 mph93%29.96 "Hg6 mi
10:52 am44 °FFog.5 mph93%29.99 "Hg5 mi
9:52 am43 °FFog.6 mph93%30.03 "Hg4 mi
8:52 am43 °FFog.6 mph89%30.04 "Hg6 mi
7:52 am41 °FFog.9 mph93%30.04 "Hg5 mi
6:52 am40 °FFog.8 mph93%30.07 "Hg6 mi
5:52 am40 °FFog.8 mph93%30.10 "Hg2 mi
5:04 am40 °FLight rain. Fog.5 mph89%30.12 "Hg2 mi
4:52 am40 °FLight rain. Fog.5 mph89%30.13 "Hg2 mi
3:52 am40 °FLight rain. Fog.6 mph89%30.14 "Hg6 mi
2:55 am39 °FLight rain. Fog.7 mph89%30.13 "Hg6 mi
1:52 am39 °FLight rain. Fog.7 mph89%30.16 "Hg6 mi
12:52 am39 °FLight rain. Fog.8 mph86%30.18 "Hg6 mi
11:52 pm
Sat, Dec 3
40 °FOvercast.8 mph80%30.21 "Hg8 mi
10:52 pm40 °FLight rain. Overcast.8 mph80%30.21 "Hg8 mi
9:52 pm40 °FLight rain. Overcast.6 mph80%30.24 "Hg8 mi
8:52 pm41 °FMostly cloudy.6 mph70%30.27 "Hg10 mi
7:52 pm41 °FOvercast.5 mph70%30.29 "Hg10 mi
6:52 pm41 °FOvercast.6 mph67%30.30 "Hg10 mi
Weather by CustomWeather, © 2016

See weather overviewHow to use our weather pages